Location: Lac Lasalle
(46.0398°N, 74.1576°W)
Time: 03:12:34
(UTC-05:00)

SEEDS - Pass Details

Date: 15 December 2019
Orbit: 586 x 603 km, 97.5° (Epoch: 27 January)

Event Time Altitude Azimuth Distance (km) Brightness Sun altitude
Rises 06:05:50 0° 10° (N) 2,857 ? -14.2°
Reaches altitude 10° 06:08:01 10° 8° (N) 1,952 ? -13.8°
Maximum altitude 06:12:13 68° 286° (WNW) 653 ? -13.1°
Drops below altitude 10° 06:16:25 10° 203° (SSW) 1,943 ? -12.4°
Sets 06:18:35 0° 201° (SSW) 2,842 ? -12.1°
